When you browse on this site, cookies collect data to enhance your experience and personalize the content and advertising you see.
Visit our Privacy Policy to learn more. By continuing to use the site, you agree to this use of cookies and data.
  • In Hungary
  • List of Countries
  • For 7 days
  • Water Temperature
  • Satellite Maps
  • Weather Map
  • News
  • Weather Widgets
  • user-avatar
    Login

    Hourly Weather Belmopan

    Today, 19 April, Friday

    Time Temperature Precipitation Wind Pressure Humidity
    00:00 +23°C° 0 mm 0 mps 749 mmHg 93%
    01:00 +23°C° 0 mm 0 mps 749 mmHg 94%
    02:00 +23°C° 0 mm 0 mps 749 mmHg 95%
    03:00 +23°C° 0 mm 0 mps 749 mmHg 96%
    04:00 +23°C° 0 mm 0 mps 749 mmHg 96%
    05:00 +23°C° 0 mm 0 mps 750 mmHg 95%
    06:00 +23°C° 0 mm 0 mps 750 mmHg 94%
    07:00 +26°C° 0 mm 1 mps 751 mmHg 86%
    08:00 +28°C° 0 mm 1 mps 751 mmHg 79%
    09:00 +30°C° 0 mm 2 mps 752 mmHg 71%
    10:00 +31°C° 0.3 mm 2 mps 752 mmHg 66%
    11:00 +34°C° 0.3 mm 2 mps 752 mmHg 61%
    12:00 +35°C° 0.3 mm 2 mps 752 mmHg 55%
    13:00 +34°C° 0.6 mm 2 mps 751 mmHg 60%
    14:00 +34°C° 0.6 mm 2 mps 751 mmHg 65%
    15:00 +32°C° 0.6 mm 2 mps 751 mmHg 70%
    16:00 +30°C° 1.9 mm 2 mps 751 mmHg 78%
    17:00 +28°C° 1.9 mm 2 mps 752 mmHg 86%
    18:00 +26°C° 1.9 mm 2 mps 752 mmHg 94%
    19:00 +26°C° 2.2 mm 2 mps 753 mmHg 94%
    20:00 +25°C° 2.2 mm 2 mps 754 mmHg 94%
    21:00 +25°C° 2.2 mm 1 mps 755 mmHg 94%
    22:00 +24°C° 0.5 mm 1 mps 755 mmHg 95%
    23:00 +24°C° 0.5 mm 1 mps 755 mmHg 96%

    Tomorrow, 20 April, Saturday

    Time Temperature Precipitation Wind Pressure Humidity
    00:00 +23°C° 0.5 mm 2 mps 756 mmHg 96%
    01:00 +23°C° 0 mm 1 mps 756 mmHg 97%
    02:00 +22°C° 0 mm 1 mps 756 mmHg 97%
    03:00 +21°C° 0 mm 1 mps 755 mmHg 97%
    04:00 +20°C° 0 mm 1 mps 756 mmHg 97%
    05:00 +19°C° 0 mm 1 mps 756 mmHg 96%
    06:00 +19°C° 0 mm 1 mps 757 mmHg 96%
    07:00 +21°C° 0 mm 1 mps 757 mmHg 82%
    08:00 +24°C° 0 mm 2 mps 758 mmHg 69%
    09:00 +26°C° 0 mm 2 mps 758 mmHg 55%
    10:00 +28°C° 0 mm 2 mps 758 mmHg 47%
    11:00 +30°C° 0 mm 2 mps 758 mmHg 40%
    12:00 +32°C° 0 mm 2 mps 757 mmHg 32%
    13:00 +32°C° 0 mm 2 mps 756 mmHg 30%
    14:00 +33°C° 0 mm 1 mps 756 mmHg 28%
    15:00 +34°C° 0 mm 1 mps 755 mmHg 25%
    16:00 +31°C° 0 mm 1 mps 755 mmHg 33%
    17:00 +29°C° 0 mm 1 mps 754 mmHg 41%
    18:00 +27°C° 0 mm 1 mps 754 mmHg 48%
    19:00 +26°C° 0 mm 1 mps 755 mmHg 56%
    20:00 +24°C° 0 mm 1 mps 756 mmHg 64%
    21:00 +23°C° 0 mm 1 mps 756 mmHg 72%
    22:00 +22°C° 0 mm 1 mps 756 mmHg 76%
    23:00 +21°C° 0 mm 1 mps 756 mmHg 79%

    Day after tomorrow, 21 April, Sunday

    Time Temperature Precipitation Wind Pressure Humidity
    00:00 +19°C° 0 mm 0 mps 756 mmHg 83%
    01:00 +19°C° 0 mm 0 mps 756 mmHg 84%
    02:00 +18°C° 0 mm 0 mps 755 mmHg 85%
    03:00 +18°C° 0 mm 0 mps 755 mmHg 86%
    04:00 +18°C° 0 mm 0 mps 755 mmHg 85%
    05:00 +18°C° 0 mm 0 mps 755 mmHg 84%
    06:00 +18°C° 0 mm 0 mps 756 mmHg 83%
    07:00 +23°C° 0 mm 1 mps 756 mmHg 76%
    08:00 +26°C° 0 mm 1 mps 757 mmHg 68%
    09:00 +29°C° 0 mm 1 mps 757 mmHg 61%
    10:00 +29°C° 0.1 mm 2 mps 757 mmHg 58%
    11:00 +30°C° 0.1 mm 2 mps 756 mmHg 56%
    12:00 +31°C° 0.1 mm 2 mps 756 mmHg 54%
    13:00 +31°C° 0.1 mm 2 mps 755 mmHg 54%
    14:00 +31°C° 0.1 mm 2 mps 754 mmHg 54%
    15:00 +31°C° 0.1 mm 3 mps 754 mmHg 55%
    16:00 +30°C° 0 mm 2 mps 754 mmHg 60%
    17:00 +28°C° 0 mm 2 mps 754 mmHg 64%
    18:00 +27°C° 0 mm 2 mps 754 mmHg 69%
    19:00 +26°C° 0 mm 1 mps 755 mmHg 75%
    20:00 +24°C° 0 mm 1 mps 755 mmHg 82%
    21:00 +23°C° 0 mm 1 mps 756 mmHg 88%
    22:00 +22°C° 0 mm 1 mps 755 mmHg 89%
    23:00 +20°C° 0 mm 0 mps 755 mmHg 91%

    22 April, Monday

    Time Temperature Precipitation Wind Pressure Humidity
    00:00 +20°C° 0 mm 0 mps 755 mmHg 93%
    01:00 +20°C° 0 mm 0 mps 754 mmHg 93%
    02:00 +19°C° 0 mm 0 mps 754 mmHg 94%
    03:00 +19°C° 0 mm 0 mps 753 mmHg 94%
    04:00 +19°C° 0 mm 0 mps 754 mmHg 93%
    05:00 +20°C° 0 mm 0 mps 754 mmHg 92%
    06:00 +20°C° 0 mm 0 mps 754 mmHg 91%
    07:00 +21°C° 0.1 mm 0 mps 754 mmHg 88%
    08:00 +22°C° 0.1 mm 0 mps 755 mmHg 85%
    09:00 +23°C° 0.1 mm 0 mps 755 mmHg 83%
    10:00 +27°C° 0.1 mm 1 mps 755 mmHg 77%
    11:00 +29°C° 0.1 mm 1 mps 754 mmHg 72%
    12:00 +31°C° 0.1 mm 2 mps 753 mmHg 66%
    13:00 +31°C° 0.3 mm 2 mps 753 mmHg 65%
    14:00 +31°C° 0.3 mm 3 mps 752 mmHg 64%
    15:00 +31°C° 0.3 mm 3 mps 751 mmHg 64%
    16:00 +30°C° 0.1 mm 2 mps 752 mmHg 69%
    17:00 +29°C° 0.1 mm 2 mps 752 mmHg 74%
    18:00 +27°C° 0.1 mm 2 mps 752 mmHg 79%
    19:00 +27°C° 0 mm 1 mps 753 mmHg 84%
    20:00 +26°C° 0 mm 1 mps 753 mmHg 89%
    21:00 +25°C° 0 mm 1 mps 753 mmHg 94%
    22:00 +25°C° 0 mm 1 mps 753 mmHg 95%
    23:00 +25°C° 0 mm 1 mps 753 mmHg 97%

    23 April, Tuesday

    Time Temperature Precipitation Wind Pressure Humidity
    00:00 +24°C° 0 mm 1 mps 753 mmHg 98%
    01:00 +24°C° 0 mm 1 mps 752 mmHg 98%
    02:00 +22°C° 0 mm 0 mps 752 mmHg 98%
    03:00 +22°C° 0 mm 0 mps 752 mmHg 98%
    04:00 +22°C° 0 mm 0 mps 752 mmHg 98%
    05:00 +22°C° 0 mm 0 mps 752 mmHg 98%
    06:00 +22°C° 0 mm 0 mps 752 mmHg 98%
    07:00 +26°C° 0.1 mm 1 mps 753 mmHg 89%
    08:00 +28°C° 0.1 mm 1 mps 753 mmHg 80%
    09:00 +30°C° 0.1 mm 2 mps 754 mmHg 71%
    10:00 +31°C° 0.1 mm 2 mps 753 mmHg 65%
    11:00 +33°C° 0.1 mm 3 mps 753 mmHg 59%
    12:00 +34°C° 0.1 mm 3 mps 752 mmHg 53%
    13:00 +34°C° 0 mm 3 mps 752 mmHg 52%
    14:00 +35°C° 0 mm 3 mps 751 mmHg 50%
    15:00 +35°C° 0 mm 3 mps 751 mmHg 49%
    16:00 +33°C° 0 mm 3 mps 751 mmHg 57%
    17:00 +30°C° 0 mm 2 mps 751 mmHg 65%
    18:00 +29°C° 0 mm 2 mps 751 mmHg 74%
    19:00 +28°C° 0 mm 2 mps 752 mmHg 80%
    20:00 +27°C° 0 mm 1 mps 752 mmHg 86%
    21:00 +25°C° 0 mm 1 mps 753 mmHg 92%
    22:00 +25°C° 0 mm 1 mps 752 mmHg 93%
    23:00 +25°C° 0 mm 1 mps 752 mmHg 95%

    24 April, Wednesday

    Time Temperature Precipitation Wind Pressure Humidity
    00:00 +25°C° 0 mm 1 mps 752 mmHg 96%
    01:00 +24°C° 0 mm 1 mps 752 mmHg 96%
    02:00 +24°C° 0 mm 1 mps 751 mmHg 96%
    03:00 +24°C° 0 mm 1 mps 751 mmHg 97%
    04:00 +24°C° 0 mm 1 mps 751 mmHg 97%
    05:00 +24°C° 0 mm 1 mps 752 mmHg 97%
    06:00 +22°C° 0 mm 0 mps 752 mmHg 97%
    07:00 +26°C° 0.1 mm 1 mps 752 mmHg 87%
    08:00 +28°C° 0.1 mm 2 mps 753 mmHg 78%
    09:00 +30°C° 0.1 mm 2 mps 753 mmHg 68%
    10:00 +31°C° 0.1 mm 2 mps 753 mmHg 64%
    11:00 +33°C° 0.1 mm 3 mps 752 mmHg 59%
    12:00 +34°C° 0.1 mm 3 mps 752 mmHg 55%
    13:00 +34°C° 0 mm 3 mps 751 mmHg 54%
    14:00 +34°C° 0 mm 3 mps 750 mmHg 54%
    15:00 +34°C° 0 mm 3 mps 750 mmHg 54%
    16:00 +33°C° 0 mm 3 mps 750 mmHg 60%
    17:00 +30°C° 0 mm 2 mps 750 mmHg 67%
    18:00 +29°C° 0 mm 2 mps 750 mmHg 74%
    19:00 +28°C° 0 mm 2 mps 750 mmHg 80%
    20:00 +27°C° 0 mm 2 mps 751 mmHg 86%
    21:00 +26°C° 0 mm 1 mps 751 mmHg 92%
    22:00 +26°C° 0 mm 1 mps 751 mmHg 93%
    23:00 +25°C° 0 mm 1 mps 751 mmHg 95%
    Show more